RH
72 64 90 89 88 86 87 87 85 83 81 79 76 75 75 74 74 74 74 72 70 68 64 66 69 68 67 73 74 72 79 83 82 77 75 69 67 67 68 71 68 55 76
73 63 90 89 87 86 86 85 84 82 79 77 76 76 75 74 75 74 73 71 70 67 67 69 69 68 71 76 78 79 78 83 83 80 72 66 65 64 64 66 70 55 69
78 64 70 88 87 86 85 84 82 79 78 77 78 76 76 76 75 74 72 71 69 68 69 70 70 70 75 79 84 81 79 80 82 79 70 41 46 62 61 64 68 64 64
74 63 63 88 85 84 84 83 80 77 76 77 77 77 78 77 75 74 73 72 68 66 65 67 72 76 80 83 85 83 80 81 80 71 42 38 38 62 63 64 65 64 62
80 66 67 88 86 85 83 80 78 77 77 78 77 77 77 76 75 74 74 71 69 65 59 63 68 74 78 83 84 82 79 79 78 52 40 45 43 59 67 67 65 69 71
82 71 83 89 88 85 82 81 79 79 78 78 77 77 76 75 75 76 74 71 69 65 57 62 69 73 80 81 81 80 80 79 65 41 44 54 50 65 68 72 72 72 73
92 79 84 88 87 86 84 83 81 81 80 79 78 78 77 77 78 80 78 74 72 71 67 66 72 76 77 80 80 78 79 78 40 41 42 47 55 64 67 70 72 72 73
97 97 93 88 90 86 87 85 84 85 84 82 81 81 81 82 81 81 80 77 77 79 79 73 76 78 78 78 77 80 80 71 42 42 43 42 65 61 63 67 70 71 71
97 97 96 95 90 85 90 90 90 88 87 85 85 85 85 85 83 81 80 77 76 80 82 76 74 81 79 75 74 78 78 73 43 43 41 38 67 58 58 60 63 66 68
98 97 96 93 92 95 92 87 90 90 90 89 88 88 85 83 82 82 79 77 78 78 82 76 75 78 74 73 71 70 72 66 41 38 41 46 64 57 57 59 61 61 63
97 96 96 91 91 93 88 78 84 88 89 88 83 86 82 57 56 54 73 77 80 80 81 80 76 73 72 69 65 62 58 37 39 37 37 74 58 58 59 61 62 64 64
96 92 84 91 93 87 87 80 79 76 76 70 64 65 60 65 62 57 70 85 81 78 74 73 66 62 50 34 32 44 34 40 40 42 41 74 56 52 63 63 63 64 64
89 86 83 89 90 88 91 89 86 71 75 76 78 68 65 66 65 64 60 58 56 56 39 44 41 38 44 37 37 38 36 34 31 32 52 74 60 47 62 65 61 60 59
80 84 86 86 90 89 90 86 74 69 65 64 63 69 74 67 69 61 48 49 53 45 50 48 46 52 48 44 42 42 41 33 30 33 54 82 68 47 51 67 61 58 58
89 87 77 74 74 81 80 71 67 63 57 59 61 69 69 64 63 52 54 49 47 46 45 46 45 43 45 42 40 38 37 38 40 36 48 78 78 60 58 60 55 56 55
74 79 73 76 77 79 76 73 64 63 65 67 69 79 71 62 62 54 53 48 48 44 46 44 44 43 41 40 40 38 36 34 38 47 46 55 77 68 59 54 51 52 56
63 66 73 78 78 84 78 69 68 65 65 69 74 77 71 64 63 58 50 51 51 51 53 52 50 47 40 39 40 37 34 37 35 43 47 47 45 68 67 59 54 49 47
69 70 71 68 77 84 79 70 69 67 73 72 72 68 63 55 58 58 52 54 52 52 49 48 48 46 46 42 42 35 34 33 39 39 39 39 36 33 50 56 54 48 44
70 74 72 73 75 83 79 69 72 82 75 74 75 64 63 55 55 54 52 58 56 50 52 48 52 49 47 44 39 38 37 33 35 28 34 35 36 31 27 50 56 54 48
66 69 69 72 77 81 72 74 81 76 73 82 78 61 60 52 55 57 57 60 52 49 50 46 51 52 48 43 32 38 39 36 34 35 33 28 32 35 31 33 28 32 48
72 71 70 74 78 76 73 74 79 77 78 77 68 65 64 55 55 58 54 56 52 49 50 53 50 53 49 50 44 42 41 42 40 34 33 32 33 32 36 31 27 25 26
69 71 71 71 74 73 65 68 70 70 70 75 62 63 59 60 55 57 57 52 52 50 57 57 56 53 49 52 45 46 46 44 40 37 35 35 43 33 32 34 36 36 33
72 76 72 68 70 71 69 66 67 76 64 58 56 58 57 58 53 52 56 52 51 45 45 54 56 56 50 52 54 42 46 41 46 43 44 37 44 37 36 35 37 36 38
72 73 71 71 71 71 70 65 66 69 65 55 55 54 52 55 51 41 44 49 51 49 53 55 54 56 54 51 51 44 51 48 42 41 41 41 40 39 42 35 34 36 39
67 73 74 71 70 68 66 64 64 70 71 63 62 61 55 52 48 43 49 54 55 53 60 64 68 61 57 65 49 52 53 48 50 44 38 37 37 35 37 38 38 37 40
68 73 79 73 69 69 69 69 69 74 70 62 56 53 51 48 49 52 49 55 58 58 68 81 74 67 60 51 47 49 43 41 40 43 44 44 45 41 38 38 41 40 42
Wind_Speed
17 19 16 16 16 19 20 21 22 22 22 21 21 21 20 20 18 17 17 17 17 17 18 16 16 17 19 20 19 19 19 18 16 16 16 19 19 18 18 17 15 17 18
19 20 17 18 17 18 19 19 20 22 22 22 21 20 20 20 18 17 17 17 17 18 18 18 19 20 20 19 17 17 18 17 15 15 15 19 18 18 18 18 17 16 17
19 20 19 17 18 18 19 18 19 20 22 22 22 20 20 20 18 18 16 17 16 18 21 21 21 21 20 18 16 17 17 16 13 14 12 13 15 17 18 17 17 18 18
18 19 19 18 19 20 20 20 20 21 22 22 21 22 20 20 18 18 16 16 17 18 20 21 21 20 19 16 16 16 16 15 14 10 11 12 13 16 17 17 17 17 17
15 17 18 19 19 20 20 21 21 22 19 21 21 22 19 19 18 17 16 16 16 18 19 19 19 19 16 15 15 15 15 13 11 11 12 11 10 14 15 14 14 15 16
15 16 17 19 18 18 19 19 20 21 19 20 21 21 19 19 18 16 15 16 16 16 18 18 18 17 15 14 15 15 13 12 9 11 11 10 12 14 14 14 13 14 15
11 12 13 15 17 15 18 19 18 18 18 18 20 19 17 17 15 15 14 14 14 15 15 15 16 15 14 14 14 13 12 10 10 10 10 11 12 15 15 14 15 15 16
13 10 10 17 15 13 14 15 15 15 17 18 18 17 16 13 13 14 14 13 13 12 12 13 14 14 13 13 13 12 11 9 9 10 10 10 12 14 15 15 15 15 15
13 15 15 15 21 11 10 12 11 12 16 17 16 15 14 10 12 12 13 13 13 12 12 13 13 14 14 15 14 13 12 11 9 7 8 7 12 13 14 14 14 15 15
10 12 14 16 15 12 6 9 8 12 14 15 13 13 12 10 11 11 11 12 13 13 14 13 15 16 16 14 14 13 11 8 8 7 6 7 10 11 12 12 13 13 15
10 15 16 14 10 8 9 6 8 12 12 12 12 13 10 7 8 10 10 11 11 14 13 15 16 15 14 15 14 12 8 5 5 5 4 11 7 9 10 10 12 13 14
13 14 15 11 10 9 8 4 4 7 6 6 8 10 7 6 6 7 9 11 16 16 16 16 16 13 9 7 6 8 6 6 5 5 5 11 10 7 8 9 11 12 13
13 14 12 13 11 10 7 3 2 2 3 4 6 6 8 5 5 5 5 6 7 10 7 8 9 7 9 6 7 6 6 6 4 4 8 9 8 6 9 9 10 11 11
15 13 13 13 13 10 7 6 5 5 6 5 5 7 5 4 5 5 6 8 6 5 8 7 6 8 9 9 8 8 7 5 4 4 7 9 7 5 7 10 10 9 10
9 12 16 14 12 10 8 5 6 7 6 7 6 6 5 6 6 7 6 6 6 6 6 6 6 7 8 8 7 7 6 6 6 4 4 12 10 6 7 8 8 7 7
14 16 17 13 11 8 6 8 6 5 6 5 5 5 7 6 7 7 6 6 6 5 6 6 6 6 6 5 6 6 6 5 6 5 4 8 15 13 10 8 7 7 7
14 15 16 12 8 7 6 6 5 4 4 5 5 7 7 7 8 8 6 6 6 6 9 7 6 6 5 5 6 5 4 5 5 6 4 5 6 15 14 13 10 9 7
12 13 12 11 10 8 7 5 4 4 4 4 6 6 8 9 9 7 6 6 6 5 5 5 5 5 4 4 4 4 4 4 5 6 5 5 5 4 9 11 10 9 8
14 12 13 12 10 8 7 6 6 5 4 5 6 7 9 9 8 6 6 7 7 5 5 4 3 3 4 4 4 4 4 3 4 4 6 6 6 5 4 10 10 10 9
14 12 13 11 11 10 6 5 4 5 4 4 5 6 10 8 9 7 6 8 6 5 5 4 5 4 3 3 4 4 3 3 3 3 4 3 4 5 4 4 3 4 7
13 14 14 13 11 9 6 5 4 6 5 5 6 8 9 9 9 8 7 7 6 5 5 5 5 4 3 2 4 3 3 3 4 3 2 2 3 3 3 3 2 2 2
16 16 15 16 15 13 9 6 4 5 4 4 5 7 9 9 9 8 8 7 7 6 6 5 4 4 3 2 3 1 3 5 5 5 3 3 1 0 1 2 2 2 2
17 16 15 15 14 13 12 8 5 5 4 5 6 6 7 9 10 9 8 7 7 5 4 4 5 6 6 3 3 1 3 3 1 4 5 3 3 2 2 1 1 3 2
18 15 16 15 16 14 14 12 13 10 8 7 7 7 8 9 10 11 10 8 8 5 6 5 5 5 3 4 3 2 1 1 3 3 4 3 4 4 3 4 3 2 3
16 16 15 16 16 15 16 15 12 10 6 6 6 10 8 8 9 11 11 11 10 8 8 9 6 7 5 3 4 3 3 2 2 4 6 4 3 3 4 4 4 4 4
15 15 15 16 15 15 15 14 14 12 11 10 11 10 9 8 8 10 10 9 9 10 10 8 9 7 5 4 3 4 3 3 3 4 5 6 6 6 5 5 5 4 3
Wind_Direction
157 153 150 143 135 129 126 125 125 123 122 120 119 115 112 111 111 108 105 102 101 100 99 100 100 101 99 96 89 87 83 73 68 74 72 72 69 65 62 57 56 61 57
148 153 150 146 140 133 128 127 124 123 123 122 116 116 114 113 110 107 109 104 100 96 97 101 99 100 101 98 91 82 80 74 72 71 74 80 69 66 63 60 53 61 61
146 150 152 146 140 133 129 128 128 127 126 123 117 120 115 114 111 110 106 103 99 95 99 98 99 103 103 94 82 77 76 77 72 71 72 72 71 65 63 60 58 58 57
143 150 151 143 140 138 137 136 133 130 126 124 122 117 117 112 111 108 108 105 99 95 98 99 100 100 98 89 88 88 87 82 75 76 73 71 74 71 70 66 63 60 64
140 149 146 140 140 140 138 137 132 126 127 120 126 117 119 118 114 110 112 106 97 92 93 99 103 104 102 99 94 92 88 85 76 71 69 66 68 65 64 62 70 67 58
135 146 143 142 140 137 135 130 127 121 123 125 125 121 126 120 117 112 106 103 97 96 95 98 107 110 108 104 96 93 88 77 72 70 65 66 63 60 62 64 63 64 63
121 144 148 132 124 130 125 123 121 118 125 127 120 122 124 115 119 109 103 98 100 100 98 97 106 111 101 97 97 95 89 77 77 72 67 60 58 58 57 61 63 66 65
103 94 110 103 102 95 106 107 114 126 122 124 119 126 121 122 114 105 99 95 95 96 99 93 93 97 95 91 87 81 73 72 75 70 62 62 61 63 62 58 58 56 61
100 106 100 105 102 68 79 70 99 120 118 118 122 127 115 116 104 98 97 97 94 91 101 97 93 92 90 85 76 71 68 59 77 70 62 59 70 65 68 69 68 68 64
89 102 111 110 105 109 75 66 106 105 104 107 122 116 110 108 99 96 95 93 97 97 99 100 87 85 86 80 75 70 69 67 68 70 64 49 76 71 68 71 71 70 69
98 108 114 104 101 104 92 111 100 96 89 107 116 112 114 125 115 112 102 102 95 88 94 88 86 83 83 78 71 68 68 59 60 55 52 16 55 85 82 77 72 68 65
112 119 124 106 92 80 76 84 78 141 92 136 134 129 119 120 108 103 89 92 91 93 89 89 85 84 82 79 79 65 61 60 57 53 46 17 24 89 100 90 87 82 76
120 126 124 112 99 103 104 23 2 106 143 148 129 128 125 121 112 105 116 98 99 94 99 99 97 85 87 89 78 71 69 61 53 51 40 29 27 28 111 100 91 84 80
140 134 131 133 134 144 145 178 178 177 175 147 133 130 127 116 107 118 104 107 103 100 107 103 101 99 92 90 85 75 67 66 59 63 51 34 37 29 107 111 98 92 87
165 153 158 154 162 176 182 169 184 184 157 151 151 140 137 137 130 118 115 116 115 122 120 114 106 95 93 83 78 83 77 73 67 61 60 40 36 46 96 118 106 103 100
163 165 176 183 184 185 176 181 179 160 145 153 154 148 153 140 132 130 133 127 123 130 122 112 96 96 92 91 87 78 81 73 68 68 72 68 47 46 62 66 69 71 87
172 171 179 187 190 189 196 189 176 168 165 166 158 149 147 140 148 141 140 130 127 123 108 105 98 104 101 91 94 91 86 70 69 67 72 70 77 53 54 60 59 48 34
184 197 189 188 191 192 192 184 167 174 178 171 157 151 154 156 150 151 147 129 128 116 117 113 112 100 101 109 119 105 96 86 83 76 71 70 67 69 72 58 51 39 27
194 191 201 198 195 192 191 179 175 165 174 150 155 157 163 153 158 157 144 132 130 123 112 115 101 110 122 132 128 116 88 88 86 89 89 82 73 64 62 65 55 46 36
195 192 195 194 197 191 174 159 153 164 147 159 165 169 162 158 159 155 129 125 123 126 127 127 123 98 98 140 129 121 114 103 114 117 109 105 94 87 83 61 52 68 39
199 199 198 194 192 178 168 172 180 185 165 176 178 173 164 157 157 143 129 129 140 144 132 134 129 129 122 153 157 157 148 137 166 159 160 139 94 76 97 86 70 17 69
203 204 200 198 185 188 182 176 179 172 155 182 169 163 161 150 145 139 140 151 152 137 139 159 172 145 113 189 197 216 223 191 203 198 196 200 184 263 103 100 60 31 353
209 203 204 203 193 192 184 155 119 109 131 167 162 152 153 152 146 145 153 153 140 132 145 158 189 192 171 166 215 236 221 265 253 175 210 224 218 239 297 279 293 11 2
206 204 204 197 195 196 183 184 181 188 177 194 177 159 156 161 153 152 153 148 143 147 152 161 184 186 197 159 150 160 177 292 278 262 190 225 244 265 306 307 286 333 330
203 203 202 199 196 191 191 194 190 188 180 158 157 149 158 158 163 161 159 157 156 160 158 156 159 185 188 165 183 169 191 180 203 266 289 281 261 264 293 286 295 305 314
205 203 201 201 201 193 192 189 194 188 173 169 171 169 170 165 168 173 168 163 161 161 165 168 164 190 178 149 171 179 212 235 243 258 273 284 288 289 294 280 270 282 298